Voltar ao catálogo

SITRO-AIS-46

AtivoNavegaçãoSSO
NORAD 61774·PAYLOAD·🇷🇺 Russia
Este nome de satélite ainda não foi confirmado por fontes oficiais.

Lançado Nov 4, 2024 de Vostochny Cosmodrome

Loading…

Próximas Passagens (próximas 24 horas)

TLE

AtualizadoSource: Space-Track

Época: Sep 14, 2026, 22:16 UTC

1 61774U 24199AR  26257.92811997  .00106776  00000-0  81920-3 0  9998
2 61774  97.2676 137.4736 0002173 343.2207  16.8985 15.71753866148514

Acompanhe SITRO-AIS-46 em tempo real com AllMySat

Download on the App Store